Theta_e
312 312 311 311 312 312 312 311 311 310 311 312 312 313 315 315 314 314 313 314 313 313 315 314 314 311 311 314 314 315 315 315 315 315 315 316 315 315 314 315 315 315 315
312 312 312 312 312 312 312 312 310 310 311 314 314 313 314 314 314 314 313 313 313 314 315 315 311 311 312 315 315 316 316 316 317 316 316 316 316 315 314 315 315 316 316
313 313 312 310 312 312 311 310 309 309 311 311 314 314 314 314 314 314 314 313 313 314 315 314 313 312 311 314 315 315 316 314 314 315 316 316 316 317 317 315 316 316 315
312 309 309 311 312 311 309 307 307 310 311 313 313 312 314 314 314 312 313 313 313 314 315 314 313 314 311 315 314 315 314 313 314 314 315 316 316 318 318 318 318 319 318
307 307 309 309 311 309 307 307 309 311 312 315 314 313 313 314 313 314 314 314 313 313 314 314 313 314 313 315 315 314 315 316 315 315 315 314 314 317 319 318 318 318 319
306 305 305 305 307 307 308 307 310 312 311 312 313 313 312 313 313 313 314 314 314 313 314 314 313 314 313 315 315 316 314 315 316 314 314 313 314 315 318 317 317 317 317
306 305 304 305 305 307 307 307 309 311 311 311 314 314 314 312 313 313 314 314 313 311 313 314 314 313 314 314 315 316 315 317 317 315 317 315 317 318 318 317 316 316 315
303 303 303 304 305 306 306 306 308 310 311 311 312 313 313 314 313 314 314 314 313 311 313 314 313 309 314 315 314 314 316 316 315 316 315 315 316 316 316 312 306 306 304
303 303 303 304 305 305 305 305 307 310 311 311 312 313 313 314 314 314 314 313 312 310 313 313 313 314 311 313 314 315 311 316 317 317 317 316 316 312 307 308 312 313 313
302 304 303 304 303 303 303 304 305 310 312 311 311 313 313 314 314 314 315 314 312 310 312 312 314 315 313 311 314 315 314 312 317 317 317 317 317 316 317 315 314 315 315
303 303 303 302 302 301 304 304 304 308 309 310 310 311 314 314 314 313 313 312 312 309 312 313 314 312 310 310 312 315 314 313 311 312 318 318 318 317 316 317 316 315 315
303 303 303 303 301 301 303 304 305 308 309 309 310 312 313 314 313 313 313 312 311 311 313 313 313 313 312 309 312 313 313 313 313 310 309 314 317 318 318 318 316 316 315
303 303 302 303 301 302 303 303 306 307 309 308 308 309 313 314 314 314 314 313 309 313 314 313 311 312 313 310 309 311 310 311 308 310 312 312 308 313 316 316 316 314 313
303 302 301 303 301 301 302 303 306 306 308 309 307 308 312 314 312 314 314 314 310 310 314 313 313 313 312 311 310 309 308 308 308 312 313 313 313 310 307 310 313 313 312
304 302 301 302 301 301 301 304 305 306 307 309 307 308 309 311 313 314 314 314 311 309 310 312 313 314 312 312 311 310 309 308 308 312 313 313 313 314 313 312 313 314 313
305 303 301 301 300 301 301 304 306 306 306 306 307 307 309 311 314 314 314 314 313 309 310 312 313 313 312 312 311 309 306 305 307 310 312 313 314 313 313 313 312 312 312
305 301 301 301 301 300 301 301 301 305 305 306 307 305 306 312 313 315 315 315 314 313 311 311 312 312 312 313 314 314 314 313 310 308 309 312 313 313 312 312 312 312 313
304 301 301 301 301 301 301 301 301 302 305 308 308 306 305 310 311 313 315 315 315 313 313 311 310 310 312 314 315 315 315 315 315 311 310 310 311 312 312 312 312 311 312
303 301 302 302 302 301 301 301 300 302 304 305 305 306 305 307 310 313 313 314 314 314 313 314 311 311 312 313 314 315 316 315 315 314 312 310 310 310 310 311 311 312 311
305 304 302 302 302 302 301 301 301 301 303 304 304 305 305 305 309 311 314 314 312 313 314 314 313 311 312 313 312 314 315 315 314 313 314 313 311 310 310 311 310 310 310
305 304 303 303 303 302 302 302 302 302 302 302 302 303 303 303 307 309 312 313 314 313 314 314 314 314 313 313 313 312 313 314 314 314 313 313 312 312 312 311 310 310 309
306 305 304 304 304 303 302 302 302 302 302 303 304 303 303 302 304 308 309 311 313 313 313 313 314 314 314 313 314 314 314 313 313 314 314 314 313 313 313 313 312 311 310
306 306 305 305 305 304 302 302 302 302 303 303 303 303 304 304 304 303 306 309 311 312 313 313 313 313 313 313 314 314 315 315 314 314 314 314 314 314 314 314 313 312 312
307 306 306 305 304 305 304 303 303 303 303 303 303 303 303 304 305 305 304 303 306 310 311 311 311 311 311 312 312 313 314 314 315 315 315 314 314 314 313 313 313 313 313
308 307 306 304 303 304 305 303 303 304 304 304 304 304 304 304 304 304 305 305 305 305 305 308 310 310 310 311 311 311 314 314 313 313 313 314 314 315 314 314 314 314 314
311 307 307 306 305 304 304 305 305 305 306 306 305 305 305 304 304 304 304 305 305 305 306 306 305 306 308 308 309 309 310 311 313 313 314 314 314 314 314 314 313 313 313
Wind_Speed
13 14 14 19 23 20 21 23 23 24 26 25 22 22 21 20 20 21 17 15 13 12 11 10 9 13 12 10 10 12 13 14 18 21 18 13 7 7 11 14 14 15 20
11 14 21 24 22 21 22 21 21 25 24 23 17 19 19 21 18 16 16 15 14 12 10 6 9 11 10 10 11 13 14 14 18 15 13 10 3 4 9 12 12 10 12
16 19 20 23 21 19 19 22 25 27 25 22 13 13 13 14 18 15 15 14 11 9 7 6 6 9 10 11 10 9 9 9 11 10 8 6 5 5 9 10 10 9 13
16 20 21 17 15 17 21 23 24 23 24 19 16 17 14 14 13 16 16 13 10 10 9 7 5 8 10 10 7 4 6 10 7 7 10 8 9 8 13 15 15 15 16
18 19 18 15 13 16 20 22 20 18 18 12 10 14 14 17 15 14 13 14 11 10 9 5 5 5 8 7 4 1 9 15 6 7 17 14 12 13 20 21 22 22 23
17 16 18 19 16 14 16 18 17 15 15 12 9 11 17 18 19 14 14 13 7 7 8 10 4 3 4 4 5 12 10 10 8 14 18 11 14 18 18 21 21 23 24
18 19 17 15 14 13 14 17 15 15 14 15 8 7 7 12 19 17 16 16 10 7 8 10 4 1 1 5 8 13 5 9 10 9 13 19 17 21 19 20 20 18 19
15 15 13 14 13 12 14 17 15 15 14 14 10 6 7 11 18 14 16 16 11 7 7 6 4 3 4 5 5 10 9 11 17 16 15 17 16 18 17 16 16 16 18
14 15 14 12 12 14 16 16 17 16 12 10 8 10 9 9 16 17 19 18 13 9 7 6 7 3 4 5 3 6 9 12 12 13 13 13 13 14 15 18 17 16 16
14 15 13 12 13 17 20 17 16 14 9 10 11 7 11 12 17 18 17 18 15 13 9 9 8 5 1 2 2 5 7 9 10 8 9 11 11 11 10 9 10 10 11
16 16 15 14 16 17 18 13 14 12 10 8 10 9 8 14 16 21 19 16 13 12 12 10 9 3 1 4 3 5 7 8 7 5 7 8 9 11 11 10 8 6 5
17 17 16 15 17 16 13 14 12 9 9 8 9 6 6 11 19 17 20 17 13 14 13 10 9 6 0 3 4 5 5 2 0 4 6 7 8 9 9 8 7 5 2
17 17 18 13 17 15 14 13 12 7 9 10 8 8 3 6 18 23 21 18 15 15 11 12 11 10 7 3 4 5 5 5 3 6 4 5 8 12 12 11 8 5 5
15 18 19 12 14 15 14 11 9 9 8 9 11 7 0 7 19 20 22 19 18 18 14 12 10 10 12 9 7 6 5 4 7 6 4 5 8 8 11 14 10 7 4
16 16 19 14 13 15 15 13 8 7 6 9 11 7 2 1 19 19 20 18 17 19 16 12 8 14 14 13 9 8 9 9 10 9 6 5 11 11 10 10 10 8 6
19 17 16 12 11 14 14 11 9 10 10 13 9 8 5 4 11 17 17 18 17 18 17 13 11 12 12 11 9 8 8 12 13 15 11 7 8 14 8 7 6 6 6
16 11 9 12 12 12 11 15 16 10 7 11 6 13 10 4 9 12 20 20 18 17 17 19 16 14 11 9 6 6 5 5 7 11 16 14 12 13 11 9 9 12 12
13 9 11 11 13 12 11 14 11 8 11 10 5 8 10 2 4 16 18 18 17 16 14 14 16 15 12 6 2 4 8 7 10 12 13 17 18 16 15 15 14 12 14
11 9 10 11 9 10 13 13 8 5 4 5 6 6 10 6 2 6 13 17 17 16 15 13 14 17 16 9 2 3 7 5 7 19 16 16 17 17 16 16 17 16 16
12 11 10 9 10 9 11 12 10 5 7 8 9 9 8 6 3 3 10 12 13 17 17 17 16 18 18 16 10 6 4 7 6 4 20 19 18 16 16 18 21 19 17
11 12 12 12 11 9 7 10 8 5 5 7 10 12 12 7 3 4 5 9 12 15 15 17 16 16 19 15 14 14 13 9 10 13 7 12 16 14 13 9 10 17 16
13 12 12 13 12 11 9 9 10 10 8 6 5 5 7 7 9 8 8 8 11 12 14 13 15 16 16 16 14 14 15 16 15 13 17 20 21 20 18 14 10 10 16
19 16 13 13 12 12 12 11 12 10 9 9 10 9 7 6 7 12 14 14 14 15 14 14 14 14 19 19 18 17 15 15 16 16 16 18 16 14 16 17 18 17 15
20 20 18 14 14 13 15 15 14 13 10 10 10 10 10 10 9 9 11 14 18 21 21 20 20 23 25 22 21 20 18 19 17 16 16 16 16 16 17 16 14 14 16
24 20 19 16 15 15 14 15 17 17 16 15 16 16 15 14 13 11 11 12 13 17 21 25 26 27 26 26 22 19 23 22 23 24 23 21 21 20 20 18 18 17 17
26 25 21 22 21 18 19 19 19 20 19 19 18 18 20 18 17 16 15 15 15 15 15 18 22 25 27 26 24 23 23 22 25 24 24 24 24 24 26 27 26 25 25
Wind_Direction
288 300 309 309 309 297 300 307 310 311 311 300 285 259 254 242 252 252 254 252 260 269 267 279 293 309 313 306 310 311 290 271 274 290 301 305 292 237 202 202 209 223 217
297 300 302 307 306 303 305 310 317 320 316 311 286 247 253 241 242 243 239 243 255 264 264 285 299 317 315 299 296 302 300 282 271 283 294 294 270 202 194 191 191 195 199
297 301 302 305 297 305 308 312 317 316 313 308 285 259 253 243 240 242 237 236 238 246 250 266 301 324 323 315 308 300 301 317 296 270 261 248 173 158 170 166 165 183 178
305 307 302 292 290 304 310 319 320 315 318 307 260 259 255 234 237 230 225 232 232 249 256 243 285 329 332 327 322 298 315 306 272 270 206 185 154 142 143 146 138 137 145
316 309 299 295 279 297 310 322 321 321 329 312 262 244 247 237 235 218 220 232 221 248 244 252 270 322 340 350 26 1 1 348 264 220 175 171 153 139 141 148 129 121 117
319 321 317 303 301 308 318 326 322 321 323 321 280 254 248 247 221 223 223 197 221 227 224 256 268 294 353 45 357 12 7 355 89 145 157 172 167 163 152 138 131 132 119
316 314 314 320 309 305 320 326 321 323 317 329 309 281 228 203 208 218 209 199 200 232 222 210 217 212 299 13 29 27 347 4 89 132 144 153 137 144 143 136 132 132 133
327 330 322 332 327 321 321 328 326 327 320 308 275 265 223 196 210 211 204 194 199 208 211 195 188 124 92 56 10 10 31 80 89 88 98 105 115 125 128 126 124 121 127
346 345 340 331 340 337 329 326 331 334 323 320 295 246 228 225 201 205 202 189 201 207 202 202 199 180 94 60 54 49 45 105 117 121 116 114 110 112 126 134 128 128 129
347 346 344 346 340 334 328 322 327 333 329 328 322 241 248 216 198 199 190 196 210 206 206 218 206 202 136 148 111 114 95 86 91 120 121 132 134 141 146 143 148 135 138
338 338 329 334 335 333 334 329 320 327 331 327 320 288 224 202 198 190 197 196 210 210 194 194 190 169 12 201 163 169 124 92 93 105 113 129 137 148 143 143 149 148 156
338 339 336 327 339 338 332 341 331 325 342 330 336 306 237 198 198 195 198 196 203 190 195 197 170 174 41 138 164 157 169 172 3 165 160 159 157 157 160 154 146 157 179
339 342 336 327 353 345 344 339 337 322 350 350 333 328 199 198 182 197 197 194 196 188 189 190 201 203 229 198 185 195 209 216 166 139 139 172 183 193 188 181 173 192 223
331 346 341 329 339 346 349 340 330 336 342 338 345 335 271 190 189 184 189 194 194 192 189 195 211 220 190 205 214 219 218 197 177 164 134 167 168 166 183 200 199 192 194
330 341 349 336 344 346 349 345 338 337 313 3 9 7 298 52 187 191 191 192 198 200 202 205 217 199 194 213 229 243 247 229 207 199 185 177 190 200 193 193 207 229 237
337 337 347 4 0 354 356 2 349 324 318 349 34 24 8 41 168 193 189 191 194 202 203 196 208 200 209 220 241 241 227 221 216 216 207 196 177 192 200 200 195 192 201
327 337 354 357 356 358 353 353 345 10 357 358 64 33 21 151 176 173 176 184 195 199 207 214 217 219 218 232 252 252 215 207 211 225 220 207 194 200 216 222 243 257 256
323 313 327 347 349 347 332 327 325 334 4 71 87 28 26 56 187 200 177 184 192 196 205 207 214 220 214 202 297 237 219 206 219 211 221 223 224 227 224 219 231 240 263
318 311 320 337 335 348 358 2 332 295 307 333 340 5 22 32 267 178 197 207 208 209 210 212 213 201 204 210 233 277 228 260 268 211 204 207 215 226 237 241 244 245 245
330 314 305 318 332 333 342 345 356 318 263 269 291 310 337 359 346 206 215 218 220 216 218 217 222 214 222 224 227 240 253 229 243 239 215 218 225 235 252 258 252 250 254
322 321 291 295 303 315 312 330 342 354 342 295 287 291 300 293 265 237 231 226 217 217 222 220 215 216 221 230 240 246 244 248 253 242 243 224 227 232 249 273 253 242 249
309 315 300 294 293 301 278 287 306 307 309 316 326 319 296 278 241 240 232 211 213 220 226 224 229 231 234 243 249 253 253 255 256 248 231 234 235 237 245 252 258 258 245
299 301 303 297 296 288 274 274 273 286 296 293 289 296 297 288 267 247 241 239 227 218 219 226 235 248 246 248 252 250 250 249 238 233 231 234 237 249 252 250 262 254 265
291 295 292 296 285 290 276 270 263 265 271 276 277 281 286 279 279 268 254 248 243 241 238 235 237 243 245 248 247 247 243 228 224 225 225 229 231 228 241 249 248 243 246
275 280 284 282 286 274 275 270 266 266 268 266 267 272 271 267 261 261 261 256 252 249 247 243 242 245 248 251 248 241 230 234 234 239 241 235 233 235 236 241 250 260 260
284 273 282 281 273 278 271 264 260 263 267 271 272 272 267 262 252 257 255 259 256 254 251 247 240 239 241 242 238 243 242 243 242 244 245 247 251 252 253 254 254 255 254